Lexington Weather

Lexington, Massachusetts, USA

25°F
1/21/2021 10:01am 
  • Lexington Conditions: Clear
  • Temperature: 24.6°F / -4.1°CWarmer 2.1°F than last hour.
  • Dew Point: 13.5°FIncreased 1.7°Fsince last hour.
  • Relative Humidity: 62%Decreased 1.0% since last hour.
  • Wind: Wind from SW SW 1 mph, 10-min avg: Calm, gust: 10 mph
  • Barometer: 29.78 in Steady
  • Visibility: 10 miles
  • Snow Today: Trace
  •   

Regional Weather Roundup
for Boston / Norton, MA

        
000
ASUS41 KBOX 151005
RWRBOX

REGIONAL WEATHER ROUNDUP
NATIONAL WEATHER SERVICE BOSTON/NORTON MA
500 AM EST FRI JAN 15 2021

NOTE:  "FAIR" INDICATES FEW OR NO CLOUDS BELOW 12,000 FEET WITH NO 
SIGNIFICANT WEATHER AND/OR OBSTRUCTIONS TO VISIBILITY.

MAZALL-151100-
EASTERN MASSACHUSETTS
  
CITY           SKY/WX    TMP DP  RH WIND       PRES   REMARKS
BOSTON         CLOUDY    34  32  92 N6        30.00R WCI  29          
BEVERLY        CLOUDY    33  30  88 CALM      29.98R FOG              
LAWRENCE       CLOUDY    31  29  92 CALM      30.00R FOG              
BEDFORD        CLOUDY    34  32  92 CALM      29.98R FOG              
BLUE HILL        N/A     33  33 100 N6        29.95R WCI  28          
NORWOOD        CLOUDY    36  33  89 CALM      29.99R FOG              
MARSHFIELD     CLOUDY    39  37  93 N6        29.98R                  
PLYMOUTH       CLOUDY    37  35  92 CALM      29.97R                  
TAUNTON        CLOUDY    38  35  89 N3        29.98R FOG              
NEW BEDFORD    CLOUDY    38  36  92 CALM      29.97R FOG              
$$

MAZALL-151100-
CAPE COD AND THE ISLANDS
  
CITY           SKY/WX    TMP DP  RH WIND       PRES   REMARKS
FALMOUTH       CLOUDY    39  36  87 NE7       29.96R                  
HYANNIS        CLOUDY    40  37  89 NE3       29.95R                  
CHATHAM        CLOUDY    41  35  79 NE6       29.97R                  
PROVINCETOWN   CLEAR     39  33  79 NE6       29.98R                  
NANTUCKET      CLOUDY    41  39  93 N8        29.96R                  
MARTHAS VNYRD  CLOUDY    39  37  92 N6        29.96R                  
$$
 
MAZALL-151100-
CENTRAL AND WESTERN MASSACHUSETTS
  
CITY           SKY/WX    TMP DP  RH WIND       PRES   REMARKS
WORCESTER      FOG       32  30  92 VRB5      29.95R VSB 1/4 WCI  27  
FITCHBURG      CLOUDY    33  33 100 CALM      29.99R FOG              
ORANGE         FOG       28  26  92 CALM      29.98R VSB 1/4          
SPRINGFIELD    CLOUDY    30  29  99 CALM      29.97S FOG              
WESTFIELD      FOG       28  28 100 CALM      29.98R VSB 1/4          
NORTH ADAMS    FOG       28  25  88 CALM      29.96R VSB 1/2          
PITTSFIELD     FOG       30  29  96 CALM      29.92R VSB 1/4          
$$
 
RIZALL-151100-
RHODE ISLAND
  
CITY           SKY/WX    TMP DP  RH WIND       PRES   REMARKS
PROVIDENCE     CLOUDY    37  34  89 N8        29.98S FOG     WCI  31  
NEWPORT        CLOUDY    36  34  92 N6        29.96S FOG     WCI  31  
BLOCK ISLAND   CLOUDY    37  34  89 NE9       29.97R WCI  30          
SMITHFIELD     FOG       34  34 100 N5        29.97R VSB 1/4 WCI  30  
WESTERLY       CLOUDY    34  33  96 NE3       29.97R                  
$$
 
CTZALL-151100-
CONNECTICUT
  
CITY           SKY/WX    TMP DP  RH WIND       PRES   REMARKS
BRADLEY INTL   CLOUDY    33  31  92 N5        29.98R FOG     WCI  29  
HARTFORD       CLOUDY    35  33  92 NE3       29.99R FOG              
BRIDGEPORT     CLEAR     34  31  88 NE7       29.96S FOG     WCI  28  
DANBURY        PTCLDY    25  23  92 CALM      29.96S FOG              
GROTON         CLOUDY    36  33  89 NE3       29.98R                  
NEW HAVEN      PTCLDY    35  33  92 NE6       29.98R FOG     WCI  30  
CHESTER        CLOUDY   N/A N/A N/A NE6       29.96R FOG              
MERIDEN        CLOUDY    34  32  92 VRB3      29.98R FOG              
WILLIMANTIC    CLOUDY    35  33  92 CALM      29.98R FOG              
OXFORD         CLOUDY    33  33 100 NE3       29.96R FOG              
$$

MEZ002-015-021-024-NHZ003-005-008-011-012-014-VTZ005-008-151100-
NORTHERN NEW ENGLAND
  
CITY           SKY/WX    TMP DP  RH WIND       PRES   REMARKS
PORTLAND ME    CLOUDY    32  26  78 N3        30.01R                  
BANGOR ME      CLOUDY    31  27  85 N7        30.01R WCI  24          
CONCORD NH     CLEAR     27  23  85 CALM      29.99R                  
MANCHESTER NH  PTCLDY    31  28  89 N3        29.97R FOG              
NASHUA NH      CLOUDY    33  33 100 W3        30.00R                  
PORTSMOUTH NH  MOCLDY    33  26  78 CALM      29.98R                  
JAFFREY NH     CLEAR     27  23  85 CALM      29.95R FOG              
KEENE NH       FOG       26  24  92 S6        29.98  VSB 1/4 WCI  19  
BURLINGTON VT  CLOUDY    25  23  92 CALM      30.00R FOG              
MT. WASHINGTON CLOUDY    18   5  57 N15         N/A  WCI   3          
$$

NYZ052-076-151100-
EASTERN NEW YORK
  
CITY           SKY/WX    TMP DP  RH WIND       PRES   REMARKS
ALBANY         PTCLDY    22  22 100 CALM      29.97R FOG              
NEW YORK CITY  CLOUDY    39  33  79 E6        29.94F                  
$$
 
ANZALL-151100-
MARINE OBSERVATIONS
  
STATION/POSITION TIME  TEMP    WIND        PRES    VSBY  WAVE
                       AIR SEA DIR/SP/G                  HT/PER
                 (UTC) (F)     (DEG/KT/KT) (MB)    (MI)  (FT/S)
BOSTON BUOY      0950   38 43  340/ 10/ 10 1015.8R         1/10
BUZZARDS BAY     0900           20/ 12/ 13 1015.3R
NANTUCKET SOUND  0950      41   20/  8/ 10   N/A           1
MASS BAY-STELLWA 0904   40      20/ 12/ 14 1013.8S  1 7/8  1/ 3
ISLE OF SHOALS   0900   36     350/  8/  9 1014.7R
S OF BLOCK IS    0926      47                N/A           3/ 4
$$

......................KEY.........................
  SKY/WX - SKY CONDITION/PRESENT WEATHER
  TMP    - TEMPERATURE IN FAHRENHEIT
  DWPT   - DEWPOINT IN FAHRENHEIT
  RH     - RELATIVE HUMIDITY IN PERCENT
  WIND   - DIRECTION AND SPEED IN MPH
  PRES   - MEAN SEA LEVEL PRESSURE IN INCHES OF HG
  WCI    - WIND CHILL INDEX
  VSB    - VISIBILITY IN MILES
  HX     - HEAT INDEX
  TC     - TEMPERATURE IN CELSIUS
  VRB    - VARIABLE WIND DIRECTION
  N/A    - NOT AVAILABLE
  
      

Other recent Regional Weather Roundups

Thu Jan 21, 9:04am

Thu Jan 21, 7:04am

Thu Jan 21, 6:04am

Thu Jan 21, 5:04am

Thu Jan 21, 4:04am

Thu Jan 21, 3:04am

Thu Jan 21, 2:04am

Thu Jan 21, 1:04am

Thu Jan 21, 12:04am

Wed Jan 20, 11:04pm

Wed Jan 20, 10:05pm

Wed Jan 20, 9:04pm

Wed Jan 20, 8:04pm

Wed Jan 20, 7:04pm

Wed Jan 20, 6:05pm

Wed Jan 20, 5:05pm

Wed Jan 20, 1:04pm

Wed Jan 20, 12:04pm

Wed Jan 20, 11:04am

Wed Jan 20, 10:04am

Wed Jan 20, 9:05am

Wed Jan 20, 8:04am

Wed Jan 20, 7:04am

Wed Jan 20, 6:04am

Wed Jan 20, 5:04am

Wed Jan 20, 4:04am

Wed Jan 20, 3:05am

Wed Jan 20, 2:04am

Wed Jan 20, 1:04am

Wed Jan 20, 12:04am

Tue Jan 19, 11:04pm

Tue Jan 19, 10:04pm

Tue Jan 19, 9:04pm

Tue Jan 19, 8:04pm

Tue Jan 19, 7:04pm

Tue Jan 19, 6:05pm

Tue Jan 19, 5:04pm

Tue Jan 19, 4:05pm

Tue Jan 19, 3:04pm

Tue Jan 19, 2:04pm

Tue Jan 19, 1:04pm

Tue Jan 19, 12:05pm

Tue Jan 19, 11:04am

Tue Jan 19, 10:05am

Tue Jan 19, 9:04am

Tue Jan 19, 8:04am

Tue Jan 19, 7:04am

Tue Jan 19, 6:04am

Tue Jan 19, 5:04am

Tue Jan 19, 4:04am

Tue Jan 19, 3:04am

Tue Jan 19, 2:04am

Tue Jan 19, 1:04am

Tue Jan 19, 12:04am

Mon Jan 18, 11:04pm

Mon Jan 18, 10:04pm

Mon Jan 18, 9:04pm

Mon Jan 18, 8:05pm

Mon Jan 18, 7:04pm

Mon Jan 18, 6:05pm

Mon Jan 18, 5:04pm

Mon Jan 18, 4:04pm

Mon Jan 18, 3:04pm

Mon Jan 18, 2:04pm

Mon Jan 18, 1:04pm

Mon Jan 18, 12:04pm

Mon Jan 18, 11:04am

Mon Jan 18, 10:04am

Mon Jan 18, 9:04am

Mon Jan 18, 8:04am

Mon Jan 18, 7:04am

Mon Jan 18, 6:04am

Mon Jan 18, 5:04am

Mon Jan 18, 4:04am

Mon Jan 18, 3:04am

Mon Jan 18, 2:04am

Mon Jan 18, 1:04am

Mon Jan 18, 12:04am

Sun Jan 17, 11:04pm

Sun Jan 17, 10:04pm

Sun Jan 17, 9:04pm

Sun Jan 17, 8:04pm

Sun Jan 17, 7:04pm

Sun Jan 17, 6:04pm

Sun Jan 17, 5:04pm

Sun Jan 17, 4:05pm

Sun Jan 17, 3:04pm

Sun Jan 17, 2:04pm

Sun Jan 17, 1:04pm

Sun Jan 17, 12:04pm

Sun Jan 17, 11:04am

Sun Jan 17, 10:04am

Sun Jan 17, 9:04am

Sun Jan 17, 8:04am

Sun Jan 17, 7:04am

Sun Jan 17, 6:04am

Sun Jan 17, 5:04am

Sun Jan 17, 4:04am

Sun Jan 17, 3:04am

Sun Jan 17, 2:04am

Sun Jan 17, 1:04am

Sun Jan 17, 12:04am

Sat Jan 16, 11:05pm

Sat Jan 16, 10:04pm

Sat Jan 16, 9:04pm

Sat Jan 16, 8:05pm

Sat Jan 16, 7:04pm

Sat Jan 16, 6:04pm

Sat Jan 16, 5:05pm

Sat Jan 16, 4:05pm

Sat Jan 16, 3:05pm

Sat Jan 16, 2:04pm

Sat Jan 16, 1:04pm

Sat Jan 16, 12:04pm

Sat Jan 16, 11:04am

Sat Jan 16, 10:05am

Sat Jan 16, 9:04am

Sat Jan 16, 8:04am

Sat Jan 16, 7:04am

Sat Jan 16, 6:04am

Sat Jan 16, 5:04am

Sat Jan 16, 4:04am

Sat Jan 16, 3:05am

Sat Jan 16, 2:04am

Sat Jan 16, 1:04am

Sat Jan 16, 12:05am

Fri Jan 15, 11:05pm

Fri Jan 15, 10:04pm

Fri Jan 15, 9:04pm

Fri Jan 15, 8:04pm

Fri Jan 15, 7:05pm

Fri Jan 15, 6:05pm

Fri Jan 15, 5:05pm

Fri Jan 15, 4:05pm

Fri Jan 15, 3:04pm

Fri Jan 15, 2:05pm

Fri Jan 15, 1:04pm

Fri Jan 15, 12:05pm

Fri Jan 15, 11:04am

Fri Jan 15, 10:04am

Fri Jan 15, 9:05am

Fri Jan 15, 8:04am

Fri Jan 15, 7:04am

Fri Jan 15, 6:04am

Fri Jan 15, 4:04am

Fri Jan 15, 3:04am

Fri Jan 15, 2:04am

Fri Jan 15, 1:04am

Fri Jan 15, 12:05am

Thu Jan 14, 11:04pm

Thu Jan 14, 10:04pm

Thu Jan 14, 9:04pm

Thu Jan 14, 8:05pm

Thu Jan 14, 7:04pm

Thu Jan 14, 6:04pm

Thu Jan 14, 5:04pm

Thu Jan 14, 4:05pm

Thu Jan 14, 3:04pm

Thu Jan 14, 2:04pm

Thu Jan 14, 1:04pm

Thu Jan 14, 12:05pm

Thu Jan 14, 11:05am

Thu Jan 14, 10:04am

Thu Jan 14, 9:04am

Thu Jan 14, 8:04am

Thu Jan 14, 7:04am

Thu Jan 14, 6:04am

Thu Jan 14, 5:04am

Thu Jan 14, 4:04am

Thu Jan 14, 3:04am

Thu Jan 14, 2:04am

Thu Jan 14, 1:04am

Thu Jan 14, 12:04am

Wed Jan 13, 11:04pm

Wed Jan 13, 10:04pm

Wed Jan 13, 9:04pm

Wed Jan 13, 8:05pm

Wed Jan 13, 7:04pm

Wed Jan 13, 6:04pm

Wed Jan 13, 5:04pm

Wed Jan 13, 4:04pm

Wed Jan 13, 3:05pm

Wed Jan 13, 2:04pm

Wed Jan 13, 1:04pm

Wed Jan 13, 12:04pm

Wed Jan 13, 11:04am

Wed Jan 13, 10:04am

Wed Jan 13, 9:05am

Wed Jan 13, 8:04am

Wed Jan 13, 7:04am

Wed Jan 13, 6:04am

Wed Jan 13, 5:04am

Wed Jan 13, 4:04am

Wed Jan 13, 3:04am

Wed Jan 13, 2:04am

Wed Jan 13, 1:04am

Wed Jan 13, 12:05am

Tue Jan 12, 11:04pm

Tue Jan 12, 10:04pm

Tue Jan 12, 9:04pm

Tue Jan 12, 8:05pm

Tue Jan 12, 7:04pm

Meta data:

ID: 573cccb9-d402-4def-9b03-2bf4f0413736
Link: https://api.weather.gov/products/573cccb9-d402-4def-9b03-2bf4f0413736